Regional Weather Roundup
Issued by NWS

Home | Current Version | Previous Version | Text Only | Print | Product List | Glossary Off
Versions: 1 2 3 4 5 6 7 8 9 10 11 12 13 14 15 16 17 18 19 20 21 22 23 24 25 26 27 28 29 30 31 32 33 34 35 36 37 38 39 40 41 42 43 44 45 46 47 48 49 50

000
ASUS43 KMPX 280601
RWRMN
WEATHER ROUNDUP FOR MINNESOTA
NATIONAL WEATHER SERVICE TWIN CITIES/CHANHASSEN MN
100 AM CDT WED SEP 28 2016


NOTE: "FAIR" INDICATES FEW OR NO CLOUDS BELOW 12,000 FEET WITH NO
SIGNIFICANT WEATHER AND/OR OBSTRUCTIONS TO VISIBILITY. N/A MEANS
CURRENT SKY AND/OR WEATHER CONDITIONS ARE NOT AVAILABLE.

MNZ060>063-068>070-280700-
   Twin Cities Metro

CITY           SKY/WX    TMP DP  RH WIND       PRES   REMARKS
TWIN CITIES    CLOUDY    50  45  83 N12       29.92R
6HR MIN TEMP:  50; 6HR MAX TEMP:  50; 6HR PCP: TRACE;

ST PAUL        CLOUDY    50  45  83 NW9       29.92R
CRYSTAL        CLOUDY    49  44  83 N8        29.92R
BLAINE         CLOUDY    52  48  87 N9        29.92R
LAKEVILLE      CLOUDY    48  46  93 N10       29.91R
EDEN PRAIRIE   CLOUDY    50  45  83 N8        29.91R
6HR MIN TEMP:  50; 6HR MAX TEMP:  52; 6HR PCP: TRACE;

LAKEVILLE      CLOUDY    48  46  93 N10       29.91R
SOUTH ST PAUL  CLOUDY    50  45  81 N8        29.91R
LAKE ELMO      CLOUDY    50  46  87 N7        29.91R
$$
MNZ001>005-007-008-013>017-022>024-027-028-280700-
   Northwest Minnesota

CITY           SKY/WX    TMP DP  RH WIND       PRES   REMARKS
BEMIDJI        CLEAR     40  40 100 NW5       30.02R
HALLOCK        CLEAR     45  43  93 NW3       30.08R
ROSEAU         CLOUDY    43  37  81 NW6       30.06R
WARROAD        MOCLDY    46  43  87 N7        30.06R
THIEF RVR FALL   N/A     46  41  82 N8        30.07R
CROOKSTON      CLOUDY    45  41  87 N5        30.07R
FOSSTON        CLOUDY    36  36 100 N7        30.05R
DETROIT LAKES  CLOUDY    46  43  87 N5        30.04R
MOORHEAD       CLEAR     43  39  87 N5        30.05R
PARK RAPIDS    CLOUDY    47  42  83 N7        30.00R
MAHNOMEN       CLOUDY    45  41  87 N7        30.03R
$$
MNZ006-009>011-018-025>026-280700-
   North Central Minnesota

CITY           SKY/WX    TMP DP  RH WIND       PRES   REMARKS
BAUDETTE       CLOUDY    49  46  90 N6        30.04R
FLAG ISLAND    CLOUDY    50  46  87 NE10      30.05R
INTL FALLS     CLOUDY    51  48  89 N7        30.01R
6HR MIN TEMP:  50; 6HR MAX TEMP:  51;

WASKISH        CLOUDY    46  45  93 N6        30.03R
BIG FORK       CLOUDY    48  46  93 N7        30.00R
GRAND RAPIDS   CLOUDY    49  46  90 N8        29.99R
ORR            CLOUDY    48  45  87 CALM      29.95R
COOK           MOCLDY    48  46  93 N3        29.96R
WALKER         CLOUDY    43  43  98 CALM      30.01R
$$
MNZ012-019>021-037-280700-
   Northeast Minnesota

CITY           SKY/WX    TMP DP  RH WIND       PRES   REMARKS
DULUTH         CLOUDY    51  48  89 N12       29.90R
6HR MIN TEMP:  48; 6HR MAX TEMP:  51; 6HR PCP: TRACE;

ELY            CLOUDY    50  48  93 N5        29.94R
HIBBING        CLOUDY    49  46  90 N6        29.95R
EVELETH        PTCLDY    50  47  90 N7        29.95R
DULUTH HARBOR  PTCLDY    54  50  87 N18       29.90R
TWO HARBORS    PTCLDY    54  48  82 N7        29.88R
SILVER BAY     PTCLDY    52  48  87 N5        29.88R
GRAND MARAIS     N/A     56  48  74 N9G18     29.87R
G MARAIS ARPRT CLOUDY    48  43  81 N14G22    29.90R
$$
MNZ029>031-032-039>041-046>048-054>057-064-280700-
   West Central Minnesota

CITY           SKY/WX    TMP DP  RH WIND       PRES   REMARKS
FERGUS FALLS   CLEAR     45  39  81 N5        30.05R
MORRIS         CLOUDY    45  41  87 N5        30.00R
ALEXANDRIA     PTCLDY    46  43  89 N12       30.00R
ELBOW LAKE     FAIR      46  41  84 N5        30.01R
WADENA         CLEAR     41  39  93 NW5       30.00R
GLENWOOD       CLEAR     43  41  93 NW6       30.00R
ORTONVILLE     CLOUDY    52  43  71 CALM      30.01R
MADISON        CLOUDY    55  46  71 N10       30.00R
WILLMAR        FAIR      46  43  87 N7        30.00R
$$
MNZ033>034-036-042>043-049>051-058-059-280700-
   Central Minnesota

CITY           SKY/WX    TMP DP  RH WIND       PRES   REMARKS
ST CLOUD       CLOUDY    47  45  93 NW8       29.95R
6HR MIN TEMP:  45; 6HR MAX TEMP:  49;

SAUK CENTRE    FAIR      44  41  91 NW7       29.98R
PAYNESVILLE    PTCLDY    43  43 100 NW3       29.98R
AITKIN         CLOUDY    50  45  81 N6        29.95R
PINE RIVER     CLOUDY    48  45  87 N12       30.01R
BRAINERD       CLOUDY    48  45  89 N10       29.98R
STAPLES        CLOUDY    45  43  93 N8        29.99R
LONG PRAIRIE   FAIR      43  41  93 NW6       29.98R
LITTLE FALLS   CLOUDY    43  41  93 CALM      29.98R
LITCHFIELD     PTCLDY    46  45  93 N6        29.97R
BUFFALO        CLOUDY    48  44  86 NW7       29.95R
MAPLE LAKE     CLOUDY    49  46  91 NW8       29.95R
HUTCHINSON     PTCLDY    47  44  91 NW6       29.97R
$$
MNZ037-044-045-052-053-280700-
   East Central Minnesota

CITY           SKY/WX    TMP DP  RH WIND       PRES   REMARKS
PRINCETON        N/A     48  46  93 NW5       29.94R
MORA           CLOUDY    48  45  87 N7        29.95R
CAMBRIDGE      CLOUDY    52  43  71 N7G16     29.91R
MOOSE LAKE     CLOUDY    50  45  81 N6        29.91R
HINCKLEY       CLOUDY    50  46  87 N8        29.92R
CLOQUET        MOCLDY    50  46  87 N7        29.91R
MCGREGOR       CLOUDY    48  46  93 N8        29.95R
$$
MNZ071>073-080-081-089-090-097-098-280700-
   Southwest Minnesota

CITY           SKY/WX    TMP DP  RH WIND       PRES   REMARKS
MONTEVIDEO     CLEAR     48  43  81 NE7       30.02R
GRANITE FALLS  CLOUDY    50  45  82 N7        30.01R
CANBY          CLOUDY    49  45  83 W6        30.01R
MARSHALL       CLOUDY    52  44  74 N9        29.99R
REDWOOD FALLS  CLEAR     49  42  77 N7        29.98R
OLIVIA         CLEAR     46  43  87 N5        29.97R
PIPESTONE      CLEAR     48  39  71 NE5       29.97R
WINDOM         CLOUDY    52  43  71 N15G21    29.96R
WORTHINGTON    CLOUDY    49  43  80 N7        29.96R
JACKSON        CLOUDY    52  41  66 N13G18    29.95R
TRACY          CLOUDY    52  45  76 N7        29.98R
$$
MNZ065>067-074>077-082>085-091>093-280700-
   South Central Minnesota

CITY           SKY/WX    TMP DP  RH WIND       PRES   REMARKS
ST JAMES       PTCLDY    48  43  81 N6        29.96R
FAIRMONT       CLOUDY    50  44  80 N13       29.94R
GLENCOE        PTCLDY    47  46  94 NW7       29.94R
FARIBAULT      CLOUDY    50  46  87 N6G16     29.92R
OWATONNA       CLOUDY    48  43  81 N7        29.91R
WASECA         CLOUDY    50  43  76 N12       29.92S
ALBERT LEA     MOCLDY    48  45  87 N8        29.90R
$$
MNZ078>079-086>088-094>096-280700-
   Southeast Minnesota

CITY           SKY/WX    TMP DP  RH WIND       PRES   REMARKS
ROCHESTER      CLOUDY    48  45  89 N13G20    29.88R
6HR MIN TEMP:  48; 6HR MAX TEMP:  54; 6HR PCP:  0.01;

RED WING       CLOUDY    50  46  87 NW6       29.88R
DODGE CENTER   CLOUDY    48  45  87 N12       29.89R
WINONA         CLOUDY    50  45  81 N9        29.86R
AUSTIN         CLOUDY    48  43  81 N10G16    29.88R
PRESTON        CLOUDY    46  43  88 N9        29.87R
$$
ABBREVIATIONS USED IN REMARKS
   TC - TEMPERATURES IN CELSIUS
  WCI - WIND CHILL INDEX
   HX - HEAT INDEX
  VSB - VISIBILITY
$$




USA.gov is the U.S. government's official web portal to all federal, state and local government web resources and services.